| time (UTC) | temp F | wind direction | speed MPH | gust MPH | rain 1hr in | rain 24hr in | rain mn in | humidity % | barometer mb |
| 20260509084004 | 48 | 272 | 4.0 | 9.0 | 0.00 | 0.00 | 0.00 | 54 | 1000.4 |
| 20260509083209 | 48 | 280 | 2.0 | 3.0 | 0.00 | 0.00 | 0.00 | 55 | 1000.4 |
| 20260509083004 | 48 | 265 | 1.0 | 3.0 | 0.00 | 0.00 | 0.00 | 54 | 1000.4 |
| 20260509082004 | 49 | 253 | 2.0 | 3.0 | 0.00 | 0.00 | 0.00 | 55 | 1000.2 |
| 20260509081709 | 49 | 252 | 2.0 | 3.0 | 0.00 | 0.00 | 0.00 | 53 | 1000.2 |
| 20260509081004 | 49 | 251 | 3.0 | 3.0 | 0.00 | 0.00 | 0.00 | 56 | 1000.3 |
| 20260509080208 | 49 | 259 | 2.0 | 3.0 | 0.00 | 0.00 | 0.00 | 53 | 1000.2 |
| 20260509075004 | 49 | 257 | 3.0 | 6.0 | 0.00 | 0.00 | 0.00 | 51 | 1000.3 |
| 20260509074709 | 49 | 265 | 2.0 | 3.0 | 0.00 | 0.00 | 0.00 | 51 | 1000.2 |
| 20260509074003 | 49 | 258 | 3.0 | 5.0 | 0.00 | 0.00 | 0.00 | 53 | 1000.3 |
| 20260509073210 | 49 | 262 | 3.0 | 3.0 | 0.00 | 0.00 | 0.00 | 52 | 1000.3 |
| 20260509073004 | 49 | 254 | 2.0 | 6.0 | 0.00 | 0.00 | 0.00 | 51 | 1000.3 |
| 20260509072003 | 49 | 264 | 2.0 | 3.0 | 0.00 | 0.00 | 0.00 | 50 | 1000.3 |
| 20260509071708 | 49 | 258 | 2.0 | 3.0 | 0.00 | 0.00 | 0.00 | 55 | 1000.3 |
| 20260509070209 | 50 | 267 | 2.0 | 3.0 | 0.00 | 0.00 | 0.00 | 53 | 1000.6 |
| 20260509065003 | 50 | 264 | 3.0 | 5.0 | 0.00 | 0.00 | 0.00 | 54 | 1000.7 |
| 20260509064709 | 50 | 270 | 3.0 | 5.0 | 0.00 | 0.00 | 0.00 | 53 | 1000.6 |
| 20260509063208 | 50 | 264 | 2.0 | 3.0 | 0.00 | 0.00 | 0.00 | 55 | 1001.0 |
| 20260509063004 | 50 | 263 | 2.0 | 7.0 | 0.00 | 0.00 | 0.00 | 49 | 1000.8 |
| 20260509062004 | 51 | 242 | 1.0 | 6.0 | 0.00 | 0.00 | 0.00 | 51 | 1000.7 |
| 20260509061710 | 51 | 244 | 1.0 | 2.0 | 0.00 | 0.00 | 0.00 | 49 | 1000.8 |
| 20260509061003 | 51 | 261 | 2.0 | 5.0 | 0.00 | 0.00 | 0.00 | 48 | 1000.9 |
| 20260509060208 | 51 | 271 | 1.0 | 2.0 | 0.00 | 0.00 | 0.00 | 47 | 1000.7 |
| 20260509060005 | 51 | 269 | 2.0 | 6.0 | 0.00 | 0.00 | 0.00 | 45 | 1000.5 |
| 20260509055004 | 52 | 287 | 1.0 | 5.0 | 0.00 | 0.00 | 0.00 | 45 | 1000.5 |
| 20260509054709 | 52 | 298 | 0.0 | 3.0 | 0.00 | 0.00 | 0.00 | 44 | 1000.6 |
| 20260509053209 | 52 | 291 | 2.0 | 8.0 | 0.00 | 0.00 | 0.00 | 44 | 1000.8 |
| 20260509053004 | 52 | 290 | 3.0 | 6.0 | 0.00 | 0.00 | 0.00 | 44 | 1000.8 |
| 20260509052004 | 53 | 238 | 2.0 | 7.0 | 0.00 | 0.00 | 0.00 | 44 | 1000.8 |
| 20260509051708 | 53 | 250 | 1.0 | 2.0 | 0.00 | 0.00 | 0.00 | 45 | 1000.9 |
| 20260509051004 | 53 | 295 | 1.0 | 10.0 | 0.00 | 0.00 | 0.00 | 43 | 1000.7 |
| 20260509050209 | 54 | 307 | 3.0 | 3.0 | 0.00 | 0.00 | 0.00 | 43 | 1000.9 |
| 20260509050004 | 54 | 306 | 3.0 | 12.0 | 0.00 | 0.00 | 0.00 | 45 | 1000.9 |
| 20260509045004 | 54 | 5 | 2.0 | 14.0 | 0.00 | 0.00 | 0.00 | 45 | 1000.7 |
| 20260509044709 | 54 | 274 | 3.0 | 12.0 | 0.00 | 0.00 | 0.00 | 45 | 1000.7 |
| 20260509044004 | 54 | 270 | 5.0 | 16.0 | 0.00 | 0.00 | 0.00 | 44 | 1000.8 |
| 20260509043210 | 54 | 293 | 3.0 | 8.0 | 0.00 | 0.00 | 0.00 | 45 | 1000.6 |
| 20260509043004 | 53 | 264 | 4.0 | 12.0 | 0.00 | 0.00 | 0.00 | 46 | 1000.5 |
| 20260509042004 | 51 | 289 | 5.0 | 14.0 | 0.00 | 0.00 | 0.00 | 54 | 1000.5 |
| 20260509041709 | 50 | 263 | 3.0 | 8.0 | 0.00 | 0.00 | 0.00 | 59 | 1000.5 |
| 20260509041004 | 51 | 257 | 2.0 | 3.0 | 0.00 | 0.00 | 0.00 | 63 | 1000.5 |
| 20260509040209 | 51 | 266 | 2.0 | 3.0 | 0.00 | 0.00 | 0.00 | 60 | 1000.4 |
| 20260509040004 | 51 | 269 | 2.0 | 5.0 | 0.00 | 0.00 | 0.00 | 60 | 1000.5 |
| 20260509035003 | 51 | 286 | 2.0 | 7.0 | 0.00 | 0.00 | 0.00 | 54 | 1000.2 |
| 20260509034709 | 51 | 271 | 1.0 | 2.0 | 0.00 | 0.00 | 0.00 | 50 | 1000.2 |
| 20260509034004 | 52 | 295 | 1.0 | 5.0 | 0.00 | 0.00 | 0.00 | 62 | 1000.2 |
| 20260509033208 | 52 | 221 | 0.0 | 0.0 | 0.00 | 0.00 | 0.00 | 61 | 1000.0 |
| 20260509033003 | 52 | 220 | 1.0 | 2.0 | 0.00 | 0.00 | 0.00 | 61 | 1000.0 |
| 20260509032004 | 52 | 218 | 0.0 | 2.0 | 0.00 | 0.00 | 0.00 | 61 | 1000.1 |
| 20260509031709 | 53 | 218 | 0.0 | 2.0 | 0.00 | 0.00 | 0.00 | 61 | 1000.2 |
| 20260509031003 | 53 | 218 | 0.0 | 1.0 | 0.00 | 0.00 | 0.00 | 59 | 1000.2 |
| 20260509030208 | 53 | 217 | 0.0 | 0.0 | 0.00 | 0.00 | 0.00 | 59 | 1000.3 |
| 20260509030004 | 53 | 218 | 0.0 | 1.0 | 0.00 | 0.00 | 0.00 | 58 | 1000.2 |
| 20260509025003 | 54 | 218 | 0.0 | 0.0 | 0.00 | 0.00 | 0.00 | 56 | 1000.2 |
| 20260509024709 | 54 | 218 | 0.0 | 0.0 | 0.00 | 0.00 | 0.00 | 56 | 1000.3 |
| 20260509024004 | 54 | 218 | 0.0 | 0.0 | 0.00 | 0.00 | 0.00 | 53 | 1000.3 |
| 20260509023209 | 54 | 218 | 0.0 | 0.0 | 0.00 | 0.00 | 0.00 | 51 | 1000.4 |
| 20260509022003 | 55 | 218 | 0.0 | 1.0 | 0.00 | 0.00 | 0.00 | 49 | 1000.4 |
| 20260509021709 | 55 | 218 | 0.0 | 0.0 | 0.00 | 0.00 | 0.00 | 49 | 1000.4 |
| 20260509021004 | 56 | 218 | 0.0 | 0.0 | 0.00 | 0.00 | 0.00 | 48 | 1000.6 |
| 20260509020209 | 56 | 218 | 0.0 | 0.0 | 0.00 | 0.00 | 0.00 | 45 | 1000.5 |
| 20260509020004 | 56 | 218 | 0.0 | 1.0 | 0.00 | 0.00 | 0.00 | 44 | 1000.5 |
| 20260509014708 | 57 | 218 | 0.0 | 0.0 | 0.00 | 0.00 | 0.00 | 38 | 1000.6 |
| 20260509014003 | 58 | 218 | 0.0 | 0.0 | 0.00 | 0.00 | 0.00 | 37 | 1000.6 |
| 20260509013209 | 58 | 218 | 0.0 | 0.0 | 0.00 | 0.00 | 0.00 | 38 | 1000.6 |
| 20260509013004 | 58 | 218 | 0.0 | 1.0 | 0.00 | 0.00 | 0.00 | 38 | 1000.6 |
| 20260509012004 | 59 | 218 | 1.0 | 3.0 | 0.00 | 0.00 | 0.00 | 38 | 1000.7 |
| 20260509011708 | 59 | 218 | 1.0 | 2.0 | 0.00 | 0.00 | 0.00 | 37 | 1000.7 |
| 20260509011004 | 59 | 217 | 2.0 | 5.0 | 0.00 | 0.00 | 0.00 | 36 | 1000.7 |
| 20260509010210 | 59 | 224 | 3.0 | 3.0 | 0.00 | 0.00 | 0.00 | 37 | 1000.8 |
| 20260509010005 | 59 | 235 | 3.0 | 7.0 | 0.00 | 0.00 | 0.00 | 37 | 1000.8 |
| 20260509005006 | 59 | 233 | 5.0 | 6.0 | 0.00 | 0.00 | 0.00 | 37 | 1000.7 |
| 20260509004710 | 59 | 246 | 5.0 | 5.0 | 0.00 | 0.00 | 0.00 | 43 | 1000.8 |
| 20260509004006 | 59 | 242 | 3.0 | 8.0 | 0.00 | 0.00 | 0.00 | 39 | 1000.9 |
| 20260509003210 | 60 | 252 | 3.0 | 7.0 | 0.00 | 0.00 | 0.00 | 38 | 1000.8 |
| 20260509003005 | 60 | 250 | 5.0 | 10.0 | 0.00 | 0.00 | 0.00 | 34 | 1000.9 |
| 20260509002006 | 60 | 247 | 6.0 | 13.0 | 0.00 | 0.00 | 0.00 | 33 | 1000.9 |
| 20260509001711 | 60 | 253 | 7.0 | 13.0 | 0.00 | 0.00 | 0.00 | 34 | 1000.9 |
| 20260509001005 | 60 | 254 | 6.0 | 17.0 | 0.00 | 0.00 | 0.00 | 35 | 1001.1 |
| 20260509000211 | 60 | 261 | 12.0 | 14.0 | 0.00 | 0.00 | 0.00 | 32 | 1001.1 |
| 20260508234711 | 60 | 268 | 9.0 | 14.0 | 0.00 | 0.00 | 0.00 | 30 | 1001.1 |
| 20260508234005 | 60 | 262 | 10.0 | 15.0 | 0.00 | 0.00 | 0.00 | 36 | 1001.2 |
| 20260508233211 | 60 | 255 | 7.0 | 10.0 | 0.00 | 0.00 | 0.00 | 33 | 1001.3 |
| 20260508233005 | 60 | 245 | 11.0 | 17.0 | 0.00 | 0.00 | 0.00 | 32 | 1001.2 |
| 20260508232006 | 60 | 236 | 8.0 | 14.0 | 0.00 | 0.00 | 0.00 | 33 | 1001.4 |
| 20260508231710 | 60 | 238 | 7.0 | 8.0 | 0.00 | 0.00 | 0.00 | 33 | 1001.4 |
| 20260508231005 | 60 | 251 | 7.0 | 15.0 | 0.00 | 0.00 | 0.00 | 33 | 1001.5 |
| 20260508230210 | 61 | 233 | 12.0 | 15.0 | 0.00 | 0.00 | 0.00 | 35 | 1001.5 |
| 20260508230005 | 61 | 228 | 12.0 | 17.0 | 0.00 | 0.00 | 0.00 | 31 | 1001.5 |
| 20260508225005 | 61 | 269 | 7.0 | 18.0 | 0.00 | 0.00 | 0.00 | 29 | 1001.5 |
| 20260508224710 | 61 | 259 | 10.0 | 10.0 | 0.00 | 0.00 | 0.00 | 38 | 1001.6 |
| 20260508224005 | 60 | 227 | 7.0 | 16.0 | 0.00 | 0.00 | 0.00 | 34 | 1001.5 |
| 20260508223211 | 60 | 230 | 14.0 | 16.0 | 0.00 | 0.00 | 0.00 | 35 | 1001.9 |
| 20260508223005 | 60 | 230 | 10.0 | 20.0 | 0.00 | 0.00 | 0.00 | 33 | 1001.9 |
| 20260508222005 | 61 | 231 | 13.0 | 20.0 | 0.00 | 0.00 | 0.00 | 32 | 1001.9 |
| 20260508221710 | 60 | 250 | 9.0 | 12.0 | 0.00 | 0.00 | 0.00 | 34 | 1001.9 |
| 20260508221005 | 60 | 241 | 9.0 | 16.0 | 0.00 | 0.00 | 0.00 | 31 | 1001.9 |
| 20260508220210 | 61 | 235 | 14.0 | 16.0 | 0.00 | 0.00 | 0.00 | 34 | 1002.2 |
| 20260508215005 | 60 | 236 | 12.0 | 17.0 | 0.00 | 0.00 | 0.00 | 33 | 1002.3 |
| 20260508214711 | 60 | 236 | 14.0 | 15.0 | 0.00 | 0.00 | 0.00 | 33 | 1002.4 |
| 20260508214005 | 61 | 282 | 6.0 | 17.0 | 0.00 | 0.00 | 0.00 | 29 | 1002.3 |
| 20260508213210 | 60 | 283 | 5.0 | 7.0 | 0.00 | 0.00 | 0.00 | 31 | 1002.4 |
| 20260508213005 | 60 | 282 | 5.0 | 14.0 | 0.00 | 0.00 | 0.00 | 31 | 1002.4 |
| 20260508212005 | 59 | 251 | 7.0 | 12.0 | 0.00 | 0.00 | 0.00 | 35 | 1002.5 |
| 20260508211710 | 59 | 251 | 7.0 | 8.0 | 0.00 | 0.00 | 0.00 | 33 | 1002.5 |
| 20260508211005 | 59 | 238 | 9.0 | 17.0 | 0.00 | 0.00 | 0.00 | 34 | 1002.6 |
| 20260508210210 | 60 | 243 | 8.0 | 10.0 | 0.00 | 0.00 | 0.00 | 33 | 1002.7 |
| 20260508210005 | 60 | 270 | 8.0 | 13.0 | 0.00 | 0.00 | 0.00 | 33 | 1002.7 |
| 20260508204711 | 59 | 237 | 6.0 | 9.0 | 0.00 | 0.00 | 0.00 | 31 | 1002.7 |
| 20260508204005 | 59 | 231 | 6.0 | 13.0 | 0.00 | 0.00 | 0.00 | 34 | 1002.8 |
| 20260508203211 | 59 | 243 | 10.0 | 12.0 | 0.00 | 0.00 | 0.00 | 35 | 1002.9 |
| 20260508203005 | 59 | 231 | 9.0 | 12.0 | 0.00 | 0.00 | 0.00 | 36 | 1002.9 |
| 20260508202005 | 59 | 267 | 3.0 | 10.0 | 0.00 | 0.00 | 0.00 | 31 | 1003.1 |
| 20260508201710 | 59 | 279 | 7.0 | 8.0 | 0.00 | 0.00 | 0.00 | 30 | 1003.2 |
| 20260508200211 | 59 | 265 | 10.0 | 14.0 | 0.00 | 0.00 | 0.00 | 31 | 1003.2 |
| 20260508200005 | 59 | 254 | 10.0 | 20.0 | 0.00 | 0.00 | 0.00 | 32 | 1003.2 |
| 20260508195005 | 59 | 226 | 2.0 | 14.0 | 0.00 | 0.00 | 0.00 | 31 | 1003.4 |
| 20260508194709 | 58 | 230 | 3.0 | 5.0 | 0.00 | 0.00 | 0.00 | 29 | 1003.6 |
| 20260508194005 | 58 | 251 | 9.0 | 14.0 | 0.00 | 0.00 | 0.00 | 31 | 1003.7 |
| 20260508193211 | 58 | 242 | 10.0 | 13.0 | 0.00 | 0.00 | 0.00 | 34 | 1003.9 |
| 20260508193005 | 58 | 254 | 5.0 | 15.0 | 0.00 | 0.00 | 0.00 | 30 | 1003.9 |
| 20260508192005 | 59 | 257 | 10.0 | 16.0 | 0.00 | 0.00 | 0.00 | 32 | 1004.0 |
| 20260508191710 | 60 | 227 | 8.0 | 13.0 | 0.00 | 0.00 | 0.00 | 30 | 1004.0 |
| 20260508191005 | 60 | 354 | 5.0 | 15.0 | 0.00 | 0.00 | 0.00 | 32 | 1004.0 |
| 20260508190211 | 59 | 260 | 12.0 | 14.0 | 0.00 | 0.00 | 0.00 | 31 | 1004.4 |
| 20260508190005 | 59 | 265 | 10.0 | 12.0 | 0.00 | 0.00 | 0.00 | 31 | 1004.4 |
| 20260508185005 | 57 | 266 | 11.0 | 14.0 | 0.00 | 0.00 | 0.00 | 31 | 1004.4 |
| 20260508184711 | 57 | 256 | 3.0 | 7.0 | 0.00 | 0.00 | 0.00 | 30 | 1004.5 |
| 20260508184005 | 58 | 244 | 10.0 | 20.0 | 0.00 | 0.00 | 0.00 | 34 | 1004.6 |
| 20260508183210 | 57 | 242 | 14.0 | 16.0 | 0.00 | 0.00 | 0.00 | 32 | 1004.6 |
| 20260508183005 | 57 | 233 | 15.0 | 22.0 | 0.00 | 0.00 | 0.00 | 34 | 1004.6 |
| 20260508182005 | 59 | 248 | 7.0 | 14.0 | 0.00 | 0.00 | 0.00 | 31 | 1005.0 |
| 20260508181710 | 58 | 278 | 5.0 | 8.0 | 0.00 | 0.00 | 0.00 | 31 | 1005.0 |
| 20260508181005 | 58 | 267 | 4.0 | 15.0 | 0.00 | 0.00 | 0.00 | 31 | 1005.0 |
| 20260508180211 | 57 | 236 | 6.0 | 7.0 | 0.00 | 0.00 | 0.00 | 32 | 1005.1 |
| 20260508175005 | 57 | 253 | 8.0 | 16.0 | 0.00 | 0.00 | 0.00 | 32 | 1005.2 |
| 20260508174709 | 57 | 249 | 8.0 | 15.0 | 0.00 | 0.00 | 0.00 | 32 | 1005.1 |
| 20260508173211 | 57 | 280 | 12.0 | 18.0 | 0.00 | 0.00 | 0.00 | 32 | 1005.4 |
| 20260508173005 | 57 | 305 | 9.0 | 21.0 | 0.00 | 0.00 | 0.00 | 31 | 1005.5 |
| 20260508171709 | 56 | 257 | 7.0 | 12.0 | 0.00 | 0.00 | 0.00 | 36 | 1005.7 |
| 20260508171005 | 57 | 255 | 10.0 | 18.0 | 0.00 | 0.00 | 0.00 | 33 | 1005.8 |
| 20260508170210 | 56 | 265 | 1.0 | 3.0 | 0.00 | 0.00 | 0.00 | 33 | 1005.8 |
| 20260508170005 | 56 | 276 | 3.0 | 15.0 | 0.00 | 0.00 | 0.00 | 32 | 1006.0 |
| 20260508164710 | 56 | 240 | 8.0 | 9.0 | 0.00 | 0.00 | 0.00 | 34 | 1006.2 |
| 20260508164004 | 56 | 265 | 2.0 | 10.0 | 0.00 | 0.00 | 0.00 | 35 | 1006.2 |
| 20260508163211 | 55 | 256 | 3.0 | 7.0 | 0.00 | 0.00 | 0.00 | 34 | 1006.3 |
| 20260508163005 | 55 | 235 | 12.0 | 16.0 | 0.00 | 0.00 | 0.00 | 35 | 1006.4 |
| 20260508162005 | 54 | 224 | 7.0 | 20.0 | 0.00 | 0.00 | 0.00 | 38 | 1006.6 |
| 20260508161710 | 54 | 245 | 10.0 | 13.0 | 0.00 | 0.00 | 0.00 | 41 | 1006.7 |
| 20260508161005 | 55 | 250 | 13.0 | 18.0 | 0.00 | 0.00 | 0.00 | 34 | 1006.8 |
| 20260508160211 | 54 | 244 | 12.0 | 13.0 | 0.00 | 0.00 | 0.00 | 38 | 1006.9 |
| 20260508160004 | 54 | 243 | 12.0 | 17.0 | 0.00 | 0.00 | 0.00 | 36 | 1006.9 |
| 20260508155005 | 54 | 257 | 12.0 | 16.0 | 0.00 | 0.00 | 0.00 | 34 | 1007.0 |
| 20260508154711 | 55 | 255 | 8.0 | 14.0 | 0.00 | 0.00 | 0.00 | 36 | 1006.9 |
| 20260508154004 | 54 | 303 | 6.0 | 14.0 | 0.00 | 0.00 | 0.00 | 36 | 1007.1 |
| 20260508153211 | 53 | 241 | 2.0 | 3.0 | 0.00 | 0.00 | 0.00 | 41 | 1007.3 |
| 20260508153005 | 53 | 226 | 8.0 | 14.0 | 0.00 | 0.00 | 0.00 | 43 | 1007.2 |
| 20260508151711 | 52 | 256 | 6.0 | 8.0 | 0.00 | 0.00 | 0.00 | 44 | 1007.4 |
| 20260508151005 | 52 | 312 | 1.0 | 16.0 | 0.00 | 0.00 | 0.00 | 41 | 1007.4 |
| 20260508150210 | 52 | 245 | 12.0 | 16.0 | 0.00 | 0.00 | 0.00 | 42 | 1007.6 |
| 20260508150006 | 52 | 259 | 9.0 | 12.0 | 0.00 | 0.00 | 0.00 | 40 | 1007.6 |
| 20260508144711 | 51 | 266 | 5.0 | 8.0 | 0.00 | 0.00 | 0.00 | 45 | 1007.8 |
| 20260508144005 | 50 | 242 | 6.0 | 8.0 | 0.00 | 0.00 | 0.00 | 45 | 1007.8 |
| 20260508143211 | 49 | 227 | 6.0 | 7.0 | 0.00 | 0.00 | 0.00 | 50 | 1007.9 |
| 20260508143005 | 49 | 222 | 6.0 | 8.0 | 0.00 | 0.00 | 0.00 | 49 | 1007.7 |
| 20260508141710 | 48 | 200 | 3.0 | 3.0 | 0.00 | 0.00 | 0.00 | 50 | 1008.0 |
| 20260508141005 | 48 | 234 | 6.0 | 10.0 | 0.00 | 0.00 | 0.00 | 53 | 1008.1 |
| 20260508140210 | 46 | 225 | 5.0 | 5.0 | 0.00 | 0.00 | 0.00 | 55 | 1008.1 |
| 20260508140005 | 46 | 243 | 5.0 | 10.0 | 0.00 | 0.00 | 0.00 | 59 | 1008.2 |
| 20260508135005 | 45 | 243 | 6.0 | 9.0 | 0.00 | 0.00 | 0.00 | 64 | 1008.2 |
| 20260508134710 | 44 | 231 | 7.0 | 9.0 | 0.00 | 0.00 | 0.00 | 66 | 1008.3 |
| 20260508134005 | 43 | 231 | 5.0 | 8.0 | 0.00 | 0.00 | 0.00 | 68 | 1008.3 |
| 20260508133210 | 42 | 230 | 5.0 | 6.0 | 0.00 | 0.00 | 0.00 | 71 | 1008.4 |
| 20260508132005 | 40 | 227 | 7.0 | 9.0 | 0.00 | 0.00 | 0.00 | 74 | 1008.4 |
| 20260508131710 | 40 | 232 | 7.0 | 7.0 | 0.00 | 0.00 | 0.00 | 74 | 1008.5 |
| 20260508131004 | 39 | 234 | 5.0 | 8.0 | 0.00 | 0.00 | 0.00 | 80 | 1008.4 |
| 20260508130210 | 38 | 232 | 3.0 | 5.0 | 0.00 | 0.00 | 0.00 | 82 | 1008.6 |
| 20260508130005 | 37 | 218 | 3.0 | 6.0 | 0.00 | 0.00 | 0.00 | 83 | 1008.6 |
| 20260508125005 | 36 | 233 | 5.0 | 6.0 | 0.00 | 0.00 | 0.00 | 87 | 1008.6 |
| 20260508124710 | 36 | 236 | 5.0 | 6.0 | 0.00 | 0.00 | 0.00 | 91 | 1008.6 |
| 20260508124005 | 34 | 253 | 4.0 | 5.0 | 0.00 | 0.00 | 0.00 | 96 | 1008.5 |
| 20260508123211 | 32 | 287 | 2.0 | 3.0 | 0.00 | 0.00 | 0.00 | 96 | 1008.6 |
| 20260508123005 | 32 | 287 | 2.0 | 3.0 | 0.00 | 0.00 | 0.00 | 96 | 1008.5 |
| 20260508122005 | 30 | 292 | 0.0 | 0.0 | 0.00 | 0.00 | 0.00 | 95 | 1008.4 |
| 20260508121709 | 30 | 292 | 0.0 | 0.0 | 0.00 | 0.00 | 0.00 | 95 | 1008.5 |
| 20260508120211 | 29 | 292 | 0.0 | 0.0 | 0.00 | 0.00 | 0.00 | 94 | 1008.2 |
| 20260508120005 | 29 | 292 | 0.0 | 0.0 | 0.00 | 0.00 | 0.00 | 94 | 1008.3 |
| 20260508115005 | 29 | 292 | 0.0 | 0.0 | 0.00 | 0.00 | 0.00 | 94 | 1008.3 |
| 20260508114711 | 29 | 292 | 0.0 | 0.0 | 0.00 | 0.00 | 0.00 | 94 | 1008.2 |
| 20260508114004 | 29 | 292 | 0.0 | 0.0 | 0.00 | 0.00 | 0.00 | 93 | 1008.2 |
| 20260508113209 | 28 | 292 | 0.0 | 0.0 | 0.00 | 0.00 | 0.00 | 93 | 1008.4 |
| 20260508113005 | 28 | 292 | 0.0 | 0.0 | 0.00 | 0.00 | 0.00 | 93 | 1008.3 |
| 20260508112005 | 28 | 292 | 0.0 | 0.0 | 0.00 | 0.00 | 0.00 | 93 | 1008.3 |
| 20260508111709 | 28 | 292 | 0.0 | 0.0 | 0.00 | 0.00 | 0.00 | 93 | 1008.3 |
| 20260508110211 | 28 | 292 | 0.0 | 0.0 | 0.00 | 0.00 | 0.00 | 92 | 1008.4 |
| 20260508110005 | 28 | 292 | 0.0 | 0.0 | 0.00 | 0.00 | 0.00 | 92 | 1008.4 |
| 20260508105005 | 28 | 292 | 0.0 | 1.0 | 0.00 | 0.00 | 0.00 | 92 | 1008.2 |
| 20260508104710 | 28 | 292 | 0.0 | 0.0 | 0.00 | 0.00 | 0.00 | 92 | 1008.2 |
| 20260508104004 | 28 | 292 | 0.0 | 0.0 | 0.00 | 0.00 | 0.00 | 92 | 1008.3 |
| 20260508103211 | 28 | 292 | 0.0 | 0.0 | 0.00 | 0.00 | 0.00 | 91 | 1008.2 |
| 20260508103004 | 28 | 292 | 0.0 | 0.0 | 0.00 | 0.00 | 0.00 | 91 | 1008.2 |
| 20260508102005 | 28 | 292 | 0.0 | 2.0 | 0.00 | 0.00 | 0.00 | 91 | 1008.2 |
| 20260508101711 | 28 | 292 | 0.0 | 0.0 | 0.00 | 0.00 | 0.00 | 91 | 1008.1 |
| 20260508101004 | 28 | 292 | 0.0 | 0.0 | 0.00 | 0.00 | 0.00 | 91 | 1008.2 |
| 20260508100211 | 28 | 292 | 0.0 | 0.0 | 0.00 | 0.00 | 0.00 | 91 | 1008.1 |
| 20260508100005 | 28 | 292 | 0.0 | 1.0 | 0.00 | 0.00 | 0.00 | 90 | 1008.2 |
| 20260508095004 | 28 | 292 | 0.0 | 0.0 | 0.00 | 0.00 | 0.00 | 90 | 1008.2 |
| 20260508094710 | 28 | 292 | 0.0 | 0.0 | 0.00 | 0.00 | 0.00 | 90 | 1008.2 |
| 20260508094005 | 28 | 292 | 0.0 | 0.0 | 0.00 | 0.00 | 0.00 | 90 | 1008.2 |
| 20260508093209 | 28 | 292 | 0.0 | 0.0 | 0.00 | 0.00 | 0.00 | 90 | 1008.3 |
| 20260508093004 | 28 | 292 | 0.0 | 0.0 | 0.00 | 0.00 | 0.00 | 90 | 1008.3 |
| 20260508092005 | 28 | 292 | 0.0 | 0.0 | 0.00 | 0.00 | 0.00 | 90 | 1008.3 |
| 20260508091710 | 28 | 292 | 0.0 | 0.0 | 0.00 | 0.00 | 0.00 | 90 | 1008.3 |
| 20260508091004 | 28 | 292 | 0.0 | 0.0 | 0.00 | 0.00 | 0.00 | 90 | 1008.3 |
| 20260508090210 | 28 | 292 | 0.0 | 0.0 | 0.00 | 0.00 | 0.00 | 90 | 1008.3 |
| 20260508090005 | 28 | 292 | 0.0 | 1.0 | 0.00 | 0.00 | 0.00 | 89 | 1008.4 |
| 20260508085004 | 28 | 292 | 0.0 | 1.0 | 0.00 | 0.00 | 0.00 | 88 | 1008.4 |
| 20260508084711 | 28 | 292 | 0.0 | 0.0 | 0.00 | 0.00 | 0.00 | 88 | 1008.4 |